Weather in Bloemfontein

South Africa     29°08′06″S   26°13′41″E
В апреле 2022 года жителям России запретили посещать сайт meteo.paraplan.net по решению Генеральной прокуратуры. Аудитория сайта уменьшилась в 10 раз. Владельцы сайта не видят смысла в поддержке погодного сервера в таких условиях. Сайт будет закрыт в октябре.
temp.,
°C
wind,
m/s
gust,
m/s
humid.,
%
clouds,
%
prec.,
mm/h
press.,
hPa
HPBL,
m
6 october, thu
thu623:00+17ese11169 0.0 101411
02:00+18nne33155 0.0 101314
05:00+17n23178 0.0 101411
08:00+22nnw131573 0.0 1016374
11:00+29wnw7111611 0.0 10131728
14:00+33nw8151412 0.0 10084661
17:00+31w11131496 0.1 10082942
20:00+23ssw4415100 0.1 101240
7 october, fri
fri723:00+19ssw4711100 0.0 101496
02:00+17sw3310100 0.0 101513
05:00+15wsw2212100 0.0 101611
08:00+21ssw552477 0.0 1018262
11:00+27sw541158 0.0 10171508
14:00+29sw5680 0.0 10142386
17:00+28ssw54110 0.0 10152319
20:00+20sse45200 0.0 101852
8 october, sat
sat823:00+17ene612260 0.0 1020212
02:00+14ene613720 0.0 1020342
05:00+13ene612780 0.0 1021264
08:00+19ne811530 0.0 1020510
11:00+29nnw910220 0.0 10171927
14:00+33nw810125 0.0 10133964
17:00+33nnw6911100 0.0 10114344
20:00+26nnw5101899 0.0 1015236
9 october, sun
sun923:00+22nne9163836 0.0 1018493
02:00+19n5144796 0.2 1018275
05:00+19nne454671 0.0 101850
08:00+23nne69320 0.0 1020485
11:00+31nw67180 0.0 10181537
14:00+34wnw5513100 0.0 10145031
17:00+29wsw13122297 0.0 1015845
20:00+22s4636100 0.1 101995
10 october, mon
mon1023:00+20nnw2239100 0.3 102013
02:00+19e594564 0.5 1021139
05:00+18ne5124513 0.0 1020202
08:00+24nne5830100 0.0 1021426
11:00+32nnw531699 0.0 10182694
14:00+33nw3213100 0.0 10144013
17:00+33nw531411 0.0 10123128
20:00+26ese462325 0.0 101585